Flag for U.S.A. Weather past 2 weeks in Metlakatla, Alaska, U.S.A.

Now
43 °F

Mostly cloudy.


Feels Like: 34 °F
Forecast: 43 / 45 °F
Wind: 20 mph from East

Location: Metlakatla - Metlakatla Seaplane Base

Current Time: Dec 20, 2014 at 7:59:08 AM

Latest Report: Dec 20, 2014 at 7:36 AM


Visibility: 7 mi

Pressure: 28.98 "Hg

Humidity: 81%

Dew point: 37 °F

Location of MetlakatlaLocation

Historic Weather in Metlakatla — Graph

°F

Metlakatla temperature yesterday

Maximum temperature yesterday: 46 °F (at 8:36 PM)
Minimum temperature yesterday: 43 °F (at 12:16 AM)
Average temperature yesterday: 44 °F

Past Weeks' High & Low Weather Summary

 TemperatureHumidityPressure
High55 °F (Dec 9, 10:56 AM)93% (Dec 6, 11:36 AM)30.08 "Hg (Dec 6, 11:36 AM)
Low39 °F (Dec 16, 4:56 PM)28% (Dec 14, 11:16 PM)28.69 "Hg (Dec 10, 3:36 PM)
Average46 °F70%29.52 "Hg
* Reported Dec 5 6:16 AM — Dec 20 6:56 AM, Metlakatla, Weather by CustomWeather, © 2014

Note: Actual official high and low records may vary slightly from our data, if they occured in-between our weather recording intervals... More about our weather records

Advertising

Metlakatla weather history for previous 24 hours

 ConditionsComfort  
Time TempWeatherWind HumidityBarometerVisibility
6:56 AM
Dec 20
43 °FOvercast.17 mph81%28.99 "Hg7 mi
6:36 AM43 °FMostly cloudy.18 mph81%29.00 "Hg9 mi
6:16 AM43 °FMostly cloudy.25 mph81%29.01 "Hg10 mi
5:56 AM43 °FMostly cloudy.20 mph81%29.02 "Hg10 mi
5:36 AM43 °FMostly cloudy.20 mph81%29.03 "Hg8 mi
5:16 AM43 °FMostly cloudy.24 mph81%29.05 "Hg5 mi
4:56 AM43 °FMostly cloudy.20 mph81%29.07 "Hg9 mi
4:36 AM43 °FOvercast.15 mph81%29.07 "Hg8 mi
4:16 AM43 °FOvercast.22 mph81%29.08 "Hg10 mi
3:56 AM45 °FMostly cloudy.24 mph71%29.09 "Hg10 mi
3:36 AM45 °FMostly cloudy.17 mph71%29.10 "Hg10 mi
3:16 AM45 °FMostly cloudy.16 mph71%29.12 "Hg10 mi
2:56 AM45 °FMostly cloudy.16 mph71%29.13 "Hg10 mi
2:36 AM45 °FMostly cloudy.10 mph71%29.15 "Hg10 mi
2:16 AM45 °FMostly cloudy.20 mph71%29.16 "Hg10 mi
1:56 AM45 °FMostly cloudy.23 mph71%29.16 "Hg10 mi
1:36 AM45 °FMostly cloudy.24 mph71%29.18 "Hg10 mi
1:16 AM45 °FOvercast.17 mph71%29.19 "Hg10 mi
12:56 AM45 °FOvercast.17 mph71%29.20 "Hg10 mi
12:36 AM45 °FMostly cloudy.13 mph71%29.22 "Hg10 mi
12:16 AM43 °FMostly cloudy.10 mph76%29.23 "Hg10 mi
11:56 PM
Dec 19
45 °FMostly cloudy.23 mph71%29.25 "Hg10 mi
11:36 PM45 °FMostly cloudy.15 mph71%29.25 "Hg10 mi
11:16 PM43 °FOvercast.10 mph76%29.26 "Hg10 mi
10:56 PM45 °FMostly cloudy.15 mph71%29.27 "Hg10 mi
10:36 PM45 °FMostly cloudy.16 mph71%29.27 "Hg10 mi
10:16 PM45 °FMostly cloudy.10 mph71%29.28 "Hg10 mi
9:56 PM45 °FOvercast.12 mph71%29.28 "Hg10 mi
9:36 PM45 °FOvercast.14 mph71%29.28 "Hg10 mi
9:16 PM45 °FOvercast.14 mph76%29.29 "Hg10 mi
8:56 PM45 °FOvercast.9 mph76%29.29 "Hg10 mi
8:36 PM46 °FOvercast.13 mph71%29.30 "Hg10 mi
7:56 PM45 °FOvercast.10 mph71%29.30 "Hg10 mi
7:36 PM45 °FMostly cloudy.9 mph76%29.31 "Hg10 mi
6:56 PM45 °FMostly cloudy.12 mph76%29.31 "Hg9 mi
6:36 PM45 °FMostly cloudy.9 mph76%29.31 "Hg10 mi
6:16 PM45 °FOvercast.10 mph76%29.31 "Hg10 mi
5:56 PM45 °FMostly cloudy.10 mph71%29.31 "Hg10 mi
5:36 PM45 °FMostly cloudy.12 mph76%29.31 "Hg10 mi
5:16 PM45 °FMostly cloudy.10 mph71%29.32 "Hg10 mi
4:56 PM45 °FMostly cloudy.13 mph71%29.32 "Hg10 mi
4:36 PM43 °FMostly cloudy.13 mph76%29.32 "Hg10 mi
3:56 PM43 °FMostly cloudy.16 mph76%29.32 "Hg9 mi
3:36 PM43 °FMore clouds than sun.16 mph76%29.32 "Hg10 mi
3:16 PM43 °FOvercast.17 mph71%29.31 "Hg10 mi
2:56 PM43 °FMostly cloudy.16 mph76%29.32 "Hg10 mi
2:36 PM43 °FCloudy.15 mph76%29.31 "Hg10 mi
2:16 PM43 °FMostly cloudy.21 mph76%29.30 "Hg8 mi
1:56 PM43 °FCloudy.18 mph76%29.31 "Hg7 mi
1:36 PM43 °FMostly cloudy.14 mph76%29.31 "Hg10 mi
1:16 PM43 °FBroken clouds.15 mph76%29.33 "Hg10 mi
12:56 PM43 °FBroken clouds.13 mph76%29.33 "Hg7 mi
12:36 PM43 °FCloudy.9 mph76%29.34 "Hg9 mi
12:16 PM43 °FCloudy.14 mph76%29.35 "Hg5 mi
11:56 AM45 °FBroken clouds.13 mph66%29.35 "Hg10 mi
11:36 AM45 °FMostly cloudy.15 mph71%29.35 "Hg10 mi
11:16 AM43 °FMostly cloudy.8 mph76%29.37 "Hg7 mi
10:56 AM45 °FCloudy.16 mph71%29.38 "Hg10 mi
10:36 AM45 °FCloudy.13 mph71%29.37 "Hg10 mi
10:16 AM45 °FMostly cloudy.12 mph71%29.37 "Hg10 mi
9:56 AM43 °FCloudy.10 mph76%29.37 "Hg10 mi
9:36 AM43 °FCloudy.15 mph76%29.38 "Hg10 mi
9:16 AM43 °FMostly cloudy.15 mph76%29.38 "Hg10 mi
8:56 AM43 °FMostly cloudy.12 mph71%29.38 "Hg10 mi
8:36 AM43 °FOvercast.8 mph76%29.38 "Hg10 mi
8:16 AM43 °FOvercast.16 mph76%29.38 "Hg10 mi
7:56 AM43 °FOvercast.15 mph76%29.38 "Hg10 mi
7:36 AM43 °FPassing clouds.12 mph76%29.38 "Hg10 mi
7:16 AM43 °FPassing clouds.15 mph76%29.38 "Hg10 mi
Weather by CustomWeather, © 2014

See weather overviewHow to use our weather pages